Theta_e
329 328 326 327 327 325 325 326 326 327 327 327 328 328 328 329 330 330 330 330 329 329 327 326 327 329 330 330 330 332 331 331 331 331 330 328 325 322 320 316 314 313 315 318 320 318 313 309 309 309 308 307 307 306 306 306 306 305 305 305 304 304 304 304 304 304 304 305 305 305 305 306 306 306 307 307 307 307 307 308 308 307 308 308 308
328 327 326 327 327 325 325 326 326 326 325 326 329 329 329 330 330 330 330 329 329 330 329 329 329 330 331 331 331 332 332 331 331 331 329 327 325 323 321 317 313 312 312 314 316 319 316 310 308 310 310 308 307 307 306 306 306 306 306 305 305 304 304 304 304 304 304 304 304 304 305 305 305 306 306 307 307 307 307 307 307 308 308 308 308
328 327 326 327 328 326 326 327 327 326 326 327 328 329 329 330 331 330 329 329 329 328 329 330 330 331 332 331 331 331 331 331 331 330 329 327 326 325 321 318 315 312 311 311 314 318 317 312 309 309 310 309 308 308 308 308 308 307 307 306 305 305 305 304 304 304 303 303 303 304 304 304 305 305 306 306 306 307 307 307 308 308 308 308 308
328 328 327 327 327 326 327 327 327 326 326 327 328 329 329 329 330 330 329 329 328 328 328 329 329 330 331 331 331 331 330 330 330 330 330 328 327 325 322 319 317 315 312 313 315 318 316 313 313 312 311 312 311 311 310 310 310 310 309 308 308 309 309 308 307 306 304 304 303 303 303 303 303 304 304 305 305 306 307 307 307 308 308 308 308
327 328 329 328 326 326 327 326 326 327 326 328 328 328 329 329 329 329 329 328 328 328 327 327 328 329 330 331 331 331 330 330 330 330 329 328 327 326 324 322 321 318 316 316 318 319 318 317 318 318 317 317 316 315 315 314 314 313 314 313 313 313 313 313 312 310 308 305 304 303 303 302 303 303 303 303 304 304 305 306 307 307 308 308 308
326 326 329 329 326 327 327 326 326 326 327 328 327 327 327 327 328 329 328 328 327 326 326 327 329 329 330 330 330 330 329 330 331 329 327 328 328 327 327 326 324 322 320 321 321 321 322 321 322 322 323 323 322 323 322 321 321 320 320 320 321 319 317 317 315 314 312 309 306 304 303 302 302 302 302 302 303 303 304 305 307 308 308 308 308
325 326 328 328 327 327 327 327 326 326 327 327 327 327 328 327 328 328 327 327 326 326 327 328 329 329 329 329 329 329 329 330 329 326 325 327 328 326 326 326 326 325 324 323 323 323 323 323 324 324 325 325 325 325 325 325 326 326 326 326 327 326 324 322 319 318 317 314 312 310 308 306 305 304 303 303 303 303 304 305 307 308 308 308 309
325 326 327 327 327 326 326 327 327 327 326 326 327 328 328 327 327 328 327 326 326 327 328 329 329 329 329 328 328 329 329 329 326 324 325 326 326 325 325 325 326 326 325 325 325 324 325 325 326 326 326 326 326 326 326 327 328 328 329 329 329 329 328 327 325 323 321 320 319 317 315 313 312 311 310 310 309 309 308 308 308 309 309 308 308
326 327 327 327 327 327 327 327 327 327 326 325 327 328 328 328 327 327 327 326 326 328 328 329 329 329 328 328 328 329 330 328 325 325 325 324 325 325 325 325 326 327 326 325 325 325 325 326 326 326 326 325 325 326 327 327 327 327 328 328 329 329 328 327 327 326 325 324 323 323 321 320 318 316 316 314 314 313 313 311 310 309 309 308 308
327 328 327 327 327 328 327 327 328 327 327 327 327 327 328 329 328 327 327 327 327 327 328 329 329 329 328 328 329 329 329 328 326 326 326 325 325 326 326 325 326 327 326 325 326 326 326 325 325 325 325 324 324 324 325 325 325 326 327 327 327 328 327 327 328 327 326 326 326 325 324 324 323 321 319 316 315 314 314 312 311 310 309 308 308
328 328 327 326 327 328 328 328 329 328 328 328 327 327 327 328 328 327 326 327 326 327 328 329 329 328 328 328 328 329 329 328 327 327 326 326 326 326 326 326 326 326 326 326 326 326 326 326 325 324 324 324 323 323 323 324 324 325 326 326 326 327 327 327 327 327 327 327 327 327 326 325 325 325 323 320 316 314 313 312 311 310 310 309 309
327 327 327 328 328 328 328 328 329 329 329 328 327 327 326 327 328 327 326 326 326 327 328 328 328 328 329 329 329 329 329 328 327 326 326 325 326 326 325 325 324 324 326 326 326 327 326 326 325 325 325 324 324 324 324 324 323 324 325 326 326 326 326 325 325 326 327 327 327 328 327 326 326 326 325 323 321 317 315 314 313 312 312 311 311
326 327 327 328 328 328 328 328 329 329 328 327 327 326 325 327 329 327 326 326 326 327 328 328 328 328 329 329 329 328 328 328 327 325 324 323 324 325 323 321 319 321 324 325 325 325 324 324 325 324 324 325 325 325 324 323 323 324 324 324 324 324 324 324 324 326 326 326 327 328 327 327 327 326 326 325 324 322 320 317 315 314 314 312 312
326 327 327 326 326 327 327 327 328 328 327 327 327 325 325 328 329 328 327 327 328 328 328 328 328 328 328 328 329 328 328 328 326 325 323 322 322 323 321 319 318 319 322 324 324 323 323 323 324 324 324 325 325 324 323 322 322 322 321 321 321 321 322 323 324 325 326 326 327 327 327 326 327 326 327 326 325 325 324 322 319 317 315 314 313
325 327 326 325 326 327 326 327 327 327 327 326 325 325 327 328 328 329 328 327 329 328 328 328 328 328 327 328 328 328 328 327 326 325 324 323 323 323 323 321 320 319 320 321 322 322 322 323 323 324 324 324 323 322 322 321 320 320 319 319 319 319 320 322 323 324 325 325 326 327 326 326 326 326 326 326 325 326 326 326 324 322 319 317 316
326 326 326 325 327 327 326 327 327 326 325 324 323 324 327 328 327 328 327 326 328 328 328 329 328 328 327 328 328 328 327 327 326 326 325 324 323 323 323 322 322 321 319 320 321 321 322 323 323 323 322 322 322 321 320 320 319 318 318 319 320 319 319 321 323 323 324 324 325 326 325 325 326 325 325 325 326 326 326 326 325 325 323 322 320
326 326 326 326 327 327 326 327 325 324 324 323 324 324 326 327 326 327 326 326 327 327 328 329 328 328 327 327 327 327 327 326 325 324 324 324 323 323 323 322 322 321 321 320 321 321 321 321 322 322 322 321 321 320 319 319 318 317 318 320 322 321 319 321 322 323 323 324 324 324 324 325 325 325 325 325 325 326 326 325 325 325 325 325 324
326 326 326 325 326 326 325 325 324 324 324 324 325 325 325 326 326 326 326 326 326 326 327 328 328 327 327 326 326 326 326 325 324 322 323 323 323 323 323 322 322 321 321 320 320 321 321 321 322 321 321 320 320 320 320 319 318 318 319 320 322 322 321 321 322 323 323 323 323 323 323 323 323 323 323 324 324 324 324 324 324 325 325 326 326
323 325 327 326 326 326 326 325 325 325 325 325 325 325 324 325 325 326 326 326 327 327 327 327 327 327 327 327 325 325 325 324 323 322 322 322 322 323 323 322 322 321 321 319 319 320 319 320 320 320 319 319 320 320 320 320 320 320 320 320 321 322 322 322 322 323 323 323 322 321 321 321 320 319 319 320 320 320 321 322 323 324 325 325 326
317 319 323 326 326 325 324 324 324 325 325 324 324 325 325 325 326 326 327 327 327 328 328 327 327 327 327 327 325 324 324 324 323 322 322 321 322 323 322 321 321 321 320 319 319 319 318 318 318 317 317 316 317 318 318 318 317 317 316 316 318 320 321 321 321 322 322 322 322 321 321 320 320 320 319 319 319 318 319 320 321 322 323 323 325
316 315 316 320 324 324 323 322 323 324 325 325 324 324 324 324 326 326 326 326 327 328 328 327 326 326 325 326 325 324 324 323 323 322 321 322 322 321 320 320 320 321 321 319 319 319 318 316 315 315 314 314 313 313 313 312 312 312 311 310 312 314 316 317 319 320 320 320 320 321 321 321 321 321 320 320 319 318 317 317 318 319 320 320 321
319 318 316 317 317 319 321 322 323 324 325 325 324 324 323 324 325 326 326 326 326 327 327 326 326 325 325 325 324 323 324 323 322 322 321 321 321 320 320 318 318 320 321 319 319 318 316 314 313 312 313 314 313 311 310 308 308 308 307 306 306 307 308 309 311 312 312 312 313 314 315 317 317 318 318 318 319 319 319 318 318 318 318 318 318
322 322 321 320 317 316 318 320 322 323 323 323 323 324 324 325 326 326 326 325 326 326 326 326 326 325 325 325 324 322 324 323 322 322 321 321 321 318 317 316 315 318 320 319 318 316 314 313 311 309 310 311 310 307 307 306 306 306 305 305 305 305 305 305 305 305 305 305 305 306 306 307 308 308 309 310 312 313 314 316 317 317 318 318 318
324 324 324 322 319 319 320 321 322 322 322 322 322 323 324 324 325 325 326 325 324 324 325 325 325 325 325 325 324 322 324 324 322 322 321 321 320 316 314 315 315 316 317 317 316 315 313 312 310 309 308 307 306 306 306 306 306 306 306 306 306 306 305 305 305 304 304 304 304 304 304 304 304 304 304 304 304 305 306 307 308 310 312 314 315
323 324 324 321 317 320 322 323 324 323 323 323 322 321 322 323 324 324 324 324 322 322 323 324 325 325 324 324 323 323 324 324 323 322 320 318 316 313 313 315 315 316 316 315 315 314 313 311 309 309 308 306 306 306 306 306 306 306 305 305 305 305 305 305 305 305 305 306 306 306 306 306 306 305 305 305 305 305 305 304 304 304 305 306 306
320 319 320 320 317 319 321 321 323 324 324 323 321 321 322 323 324 324 322 322 321 321 323 324 324 324 324 323 323 324 324 324 323 321 319 314 311 311 314 316 316 315 316 315 314 312 310 310 309 309 308 307 307 306 306 305 305 305 304 304 305 305 305 306 306 307 308 308 308 308 308 308 307 307 307 307 307 307 307 307 306 306 305 305 304
320 317 317 320 320 320 320 319 320 322 322 320 319 321 322 322 322 321 319 319 320 322 323 324 324 324 324 322 322 322 322 323 322 322 320 314 311 310 312 315 317 316 316 315 313 310 309 309 309 308 308 308 307 307 307 305 306 307 306 305 306 306 307 307 308 308 309 309 309 308 308 307 308 307 307 306 306 306 306 306 306 306 306 306 306
321 319 317 319 320 319 318 318 320 320 320 320 320 322 321 319 319 319 319 320 321 323 323 322 322 322 321 318 316 317 318 321 322 322 321 316 312 311 311 312 314 315 315 314 311 309 309 308 308 308 308 308 308 308 308 307 308 308 308 307 307 308 308 308 309 309 309 310 309 309 307 307 306 306 304 303 303 302 302 302 302 303 303 304 305
321 320 318 317 319 318 316 318 320 320 320 321 322 322 321 320 320 320 321 322 323 323 322 321 321 321 319 316 314 315 317 319 321 321 321 317 312 311 311 311 310 311 312 311 309 308 309 308 308 309 308 307 309 310 309 308 308 308 308 307 308 309 309 310 309 309 309 309 309 309 308 306 305 304 303 302 301 301 300 300 301 301 301 301 302
321 319 316 316 317 317 317 319 320 320 320 321 321 321 321 321 322 322 322 323 322 321 319 318 319 318 317 316 315 315 316 318 319 320 320 317 314 312 311 311 311 310 310 309 308 308 309 308 308 309 309 308 309 310 309 309 308 308 308 308 308 309 309 309 310 309 309 309 309 307 307 306 305 304 303 302 301 301 300 300 300 301 301 301 301
317 314 311 312 312 314 318 321 321 321 321 321 321 321 321 321 323 324 323 322 321 318 316 315 315 315 316 316 314 315 315 316 316 318 319 317 315 313 312 311 311 311 310 309 309 309 309 308 308 309 309 308 308 309 310 309 309 309 309 309 309 308 308 309 310 309 310 310 309 307 306 305 304 304 304 303 302 302 301 300 300 300 301 301 301
311 309 308 309 310 312 318 321 320 321 322 321 321 320 318 319 321 323 323 322 320 317 315 315 314 314 314 315 314 315 315 315 315 315 317 316 315 315 314 311 311 310 309 310 311 310 309 309 309 310 309 308 308 309 309 310 309 309 309 309 308 308 308 309 309 309 310 310 309 308 307 305 304 304 304 304 303 303 302 301 300 300 300 301 301
307 307 307 307 307 309 315 318 318 320 320 321 321 319 317 315 315 317 319 320 319 317 314 313 312 311 312 313 314 314 315 314 314 315 315 315 314 315 315 313 312 310 309 310 312 311 310 311 310 309 309 309 310 309 309 310 310 310 310 309 308 308 308 309 309 309 310 310 309 309 307 306 305 305 305 305 304 303 302 301 300 300 300 301 301
307 306 306 306 305 307 313 315 315 316 317 317 318 317 315 311 309 309 311 313 313 312 310 310 309 308 309 311 313 314 315 314 314 314 314 314 314 314 315 314 312 310 311 313 314 313 312 312 310 308 309 310 310 310 309 310 310 310 310 309 308 308 308 308 309 310 310 310 310 309 307 306 305 305 306 306 305 303 302 301 300 300 300 301 301
308 308 307 307 306 306 309 311 311 312 312 312 312 312 310 307 305 306 307 308 309 309 310 310 309 308 307 309 311 313 314 314 314 314 314 314 314 314 315 315 313 312 313 315 315 314 314 313 310 309 310 311 311 310 310 310 310 310 310 310 309 309 309 309 309 310 310 310 310 309 307 306 305 306 306 306 304 303 301 300 300 300 300 301 301
309 310 309 309 309 309 308 307 308 308 308 308 307 307 306 306 306 307 308 309 310 310 311 310 310 310 309 308 309 311 312 312 313 313 314 314 314 314 314 315 315 314 315 315 314 314 314 313 312 310 310 311 312 311 311 310 310 309 310 310 310 310 309 309 310 310 310 310 310 309 307 307 307 307 306 306 304 302 301 300 299 300 300 301 301
310 312 311 311 312 312 310 307 306 307 307 306 307 308 308 309 309 310 311 312 311 311 311 311 311 312 311 310 310 310 311 312 313 313 314 314 315 315 315 315 315 314 315 315 314 314 313 313 312 312 311 311 312 312 312 311 310 310 310 310 310 310 310 310 310 310 310 310 310 310 308 308 308 308 307 306 304 302 300 299 299 299 300 301 301
312 313 312 312 312 313 312 310 308 308 307 307 309 311 311 311 311 312 313 313 312 311 311 311 311 311 311 311 311 311 312 312 313 313 314 315 315 315 315 315 315 314 314 314 314 314 314 313 313 313 312 313 313 313 313 312 311 311 311 311 311 310 310 310 310 310 311 311 311 310 309 308 308 308 307 306 304 301 300 299 299 300 301 302 302
314 314 313 313 314 314 314 313 312 311 309 308 310 311 312 312 313 312 313 313 312 312 311 310 311 310 310 310 311 311 311 311 313 313 314 314 315 315 315 315 314 314 314 314 314 314 314 314 314 313 313 314 314 313 313 312 312 312 312 312 311 311 311 311 311 311 311 311 311 310 309 308 308 308 308 306 302 300 299 299 299 300 300 301 301
315 315 314 314 314 315 315 314 314 314 313 311 310 310 311 312 313 313 313 312 312 311 310 310 310 310 311 311 310 310 310 310 312 313 314 314 314 314 314 315 314 314 314 314 314 315 315 315 315 314 314 314 314 314 313 313 313 313 312 312 311 311 311 311 311 311 311 311 311 310 309 309 308 308 307 304 301 300 299 299 299 299 300 300 300
316 316 315 315 314 314 315 315 315 315 315 313 311 310 310 310 311 313 313 312 312 311 310 310 310 311 311 311 311 311 311 312 312 312 312 312 313 314 314 315 315 314 314 314 314 315 315 315 315 315 314 314 314 314 314 313 313 313 313 312 312 312 312 312 312 311 311 311 310 309 309 309 309 308 305 301 300 299 299 299 299 300 300 300 301
317 317 317 316 315 314 314 315 315 315 314 313 313 312 310 309 309 310 311 311 311 311 311 310 310 311 310 310 311 312 313 314 314 314 314 313 314 315 315 315 315 315 315 315 315 314 314 314 315 315 314 315 314 314 314 314 314 314 313 313 312 312 312 312 312 311 310 310 310 309 309 308 307 304 302 300 299 299 299 299 300 300 300 300 301
319 319 318 317 317 316 315 315 315 314 314 314 313 313 313 312 311 310 310 310 310 311 311 311 311 311 310 310 311 312 314 315 315 315 315 315 316 316 315 315 315 315 315 315 315 315 314 314 315 315 315 315 314 314 314 314 314 313 313 313 313 312 312 311 311 310 309 309 309 308 308 306 303 301 299 299 299 299 299 299 300 300 300 300 300
320 320 318 317 317 317 316 316 315 315 314 315 314 314 314 314 313 313 312 312 311 311 311 311 311 311 311 312 313 314 315 315 316 316 316 316 316 316 317 316 316 316 316 316 316 316 315 315 315 315 315 314 314 314 314 314 314 313 313 312 312 312 311 311 310 310 309 308 307 306 304 302 300 299 299 298 298 299 299 300 300 300 300 300 300
320 320 319 318 318 318 318 318 317 316 316 316 316 316 315 314 314 314 314 314 314 313 312 312 312 312 313 314 314 315 316 316 317 317 316 316 316 316 316 316 316 316 316 316 316 315 315 315 315 315 315 314 314 314 314 314 314 313 313 312 312 311 311 310 309 308 307 306 305 303 301 300 299 298 298 297 297 298 299 299 299 299 298 298 299
321 321 320 320 320 320 319 319 319 319 318 318 318 317 317 316 315 314 315 315 315 315 315 315 314 314 314 315 316 317 317 318 317 317 317 317 317 317 316 316 315 315 315 315 315 315 315 315 314 314 314 314 314 315 314 314 313 312 312 312 311 311 310 309 308 307 306 305 303 301 299 298 298 297 297 297 297 297 297 297 297 297 297 296 296
320 320 320 320 320 320 320 320 320 319 319 319 318 319 318 318 317 316 315 315 315 315 316 316 316 316 316 316 317 317 318 318 318 318 318 317 317 317 317 316 315 315 315 315 314 314 314 314 314 314 315 315 315 314 313 312 312 312 312 311 310 309 308 308 307 305 303 302 300 299 298 298 297 297 297 296 296 297 297 297 296 296 296 296 296
319 319 319 319 319 320 320 320 320 320 320 319 319 319 319 319 319 318 317 316 316 316 316 317 317 317 317 318 318 317 317 318 318 318 317 316 316 317 316 316 315 315 315 314 313 312 311 312 314 315 314 314 314 314 313 313 313 313 312 311 309 308 307 306 304 302 300 299 299 298 297 297 297 297 297 296 296 297 297 296 296 296 296 296 296
318 317 317 317 317 318 318 318 319 319 319 319 319 319 319 319 320 320 319 318 317 316 317 318 318 318 318 318 319 318 318 318 317 317 316 316 315 316 315 314 313 313 313 312 311 309 307 308 311 312 311 312 314 314 313 313 312 311 310 308 307 306 304 303 301 300 299 298 298 298 297 297 296 296 296 296 296 296 296 296 296 296 296 296 296
315 315 315 315 316 316 316 315 316 316 316 317 317 318 318 319 319 320 320 320 319 318 318 318 319 318 318 318 319 318 318 318 317 316 316 315 315 314 313 312 312 311 311 311 310 307 306 307 308 309 310 312 312 311 310 310 309 307 306 304 303 302 301 300 300 299 298 298 298 297 296 296 296 296 296 296 296 296 296 296 296 296 296 296 295
311 312 312 313 313 314 314 314 314 314 314 315 316 317 317 318 318 319 319 319 319 319 319 319 319 318 318 318 318 318 317 317 317 317 317 316 314 313 312 312 313 312 311 311 310 307 305 306 306 307 309 308 307 307 306 305 304 303 302 301 300 300 299 299 299 298 298 298 297 296 296 296 296 296 296 296 296 296 296 295 296 296 295 295 295
Wind_Speed
4 4 4 5 6 6 7 7 8 9 10 9 10 11 13 14 15 14 14 13 13 14 15 16 15 12 10 9 8 8 7 6 4 3 2 2 1 2 3 3 4 4 4 3 2 2 3 4 4 6 7 6 5 5 4 4 3 3 3 3 3 3 2 2 2 1 2 2 3 3 4 4 5 6 6 6 7 7 8 8 9 9 10 11 11
4 3 4 5 5 5 5 7 8 9 9 9 9 10 12 14 14 13 13 13 13 13 14 13 12 11 10 8 8 8 7 6 4 3 2 1 1 2 3 4 5 5 5 5 4 3 3 4 4 5 6 6 5 4 3 3 2 2 2 2 2 2 2 2 1 1 1 1 1 2 2 3 4 4 5 5 6 6 7 7 8 8 9 10 10
4 4 5 6 5 4 4 5 7 9 9 9 9 10 11 13 13 12 11 12 13 13 12 9 10 12 10 7 8 9 8 7 5 3 2 2 2 3 3 4 5 6 6 6 5 4 4 6 6 5 6 6 5 4 3 3 3 4 4 4 4 4 4 4 3 2 1 1 1 1 1 2 2 3 4 4 4 5 6 6 7 8 8 9 9
4 5 6 6 5 4 4 5 7 8 8 8 8 9 10 11 12 10 10 12 13 12 9 8 10 11 10 7 7 8 8 7 7 5 4 2 1 2 4 5 6 6 7 7 6 6 5 7 8 8 8 7 7 6 6 6 6 7 7 7 8 7 7 6 6 5 4 3 2 1 1 2 2 2 3 3 3 4 4 5 6 7 7 8 9
5 5 6 5 4 4 4 5 7 7 7 8 8 8 9 10 11 10 10 11 11 10 9 10 11 11 10 7 7 7 7 7 8 7 4 3 2 4 5 5 5 6 7 8 8 7 6 7 7 7 8 8 8 8 7 8 8 8 8 8 8 8 8 8 8 7 6 5 4 3 2 2 2 2 2 2 3 3 3 4 4 5 6 7 8
5 6 6 5 5 5 4 4 5 7 8 8 8 7 8 9 10 10 9 9 9 8 9 11 11 9 8 7 7 7 7 8 8 5 3 2 4 5 4 4 5 6 7 8 7 7 6 6 5 5 5 6 7 7 7 7 6 6 7 7 7 7 7 8 9 9 8 7 6 5 4 3 2 2 2 2 3 3 3 3 4 4 5 6 7
5 6 6 5 6 6 5 4 5 6 8 9 8 7 7 8 10 11 10 9 8 8 10 10 8 7 7 7 8 7 8 8 5 3 2 4 5 4 4 4 5 5 5 6 6 6 6 5 5 5 5 4 4 4 4 4 3 3 2 2 3 5 5 6 7 8 9 8 8 7 6 5 5 4 3 3 3 3 3 4 4 4 5 5 5
6 6 6 6 7 7 5 5 5 6 8 9 9 8 6 7 9 11 11 10 9 10 11 9 7 7 7 7 7 7 9 8 4 2 4 7 6 4 4 4 4 4 5 5 6 6 5 6 5 5 4 4 2 2 1 0 0 0 1 2 3 2 3 4 4 5 6 7 7 7 6 6 6 6 5 4 4 4 3 4 4 4 4 4 4
7 7 7 7 7 8 7 6 6 6 7 7 7 7 6 6 7 10 10 10 11 12 11 10 8 8 8 8 8 8 8 7 5 3 6 7 6 5 4 4 3 4 5 5 5 6 6 6 5 5 4 4 2 1 1 2 1 1 2 2 3 2 3 4 4 3 3 3 3 4 4 5 6 6 5 5 4 3 3 3 3 2 2 2 3
8 7 7 7 8 8 8 7 6 6 6 6 7 7 6 6 6 8 8 9 10 11 11 11 10 10 10 10 9 8 6 6 6 5 7 6 5 4 4 4 2 2 3 3 4 4 4 4 4 4 3 1 0 2 2 3 2 3 4 4 4 2 2 4 4 3 3 2 2 1 1 2 3 4 4 5 4 3 3 2 2 1 1 1 2
7 7 7 7 8 8 9 7 5 6 6 7 8 8 8 7 6 7 9 8 8 9 11 12 12 12 12 11 10 8 5 5 6 6 6 6 6 4 3 3 2 1 1 1 2 3 3 4 4 3 3 3 4 4 4 4 4 4 5 5 5 4 4 4 6 6 6 6 5 5 3 2 1 0 2 3 3 3 3 3 2 1 1 1 2
8 7 7 6 7 8 8 7 5 5 7 8 8 8 9 8 8 9 9 10 9 9 11 12 13 13 13 12 12 9 5 5 5 7 7 7 6 5 4 2 1 2 1 0 1 2 3 4 5 5 5 5 5 5 5 4 4 5 6 6 5 5 5 6 7 9 8 8 8 8 7 5 3 3 2 1 2 3 3 3 2 2 2 2 2
7 8 8 7 6 7 9 8 6 6 8 9 9 10 9 8 9 10 9 11 12 11 12 12 13 14 14 13 11 9 8 6 7 10 9 8 7 6 4 3 3 4 3 2 1 1 2 4 5 5 6 5 5 5 4 4 4 4 5 6 6 5 5 6 8 9 9 10 10 10 9 7 5 4 4 3 2 2 2 3 2 3 3 3 3
7 7 8 7 7 8 9 8 7 7 10 11 11 11 11 9 10 11 10 11 12 12 13 12 12 12 13 12 11 10 9 9 9 10 11 10 9 7 5 4 4 5 5 4 3 2 1 2 3 4 4 4 4 4 3 3 3 4 4 5 5 4 5 5 6 8 9 9 10 10 9 7 6 6 5 4 4 3 2 3 3 3 4 4 4
7 8 8 8 8 8 8 7 7 9 11 12 12 13 12 10 11 11 11 11 11 11 11 11 11 12 12 12 12 11 11 11 9 9 9 10 8 7 7 7 6 5 5 4 3 2 2 2 3 3 2 2 3 2 2 2 3 4 4 4 4 4 3 4 4 6 7 8 9 8 7 7 7 7 6 5 6 5 5 4 4 4 4 3 3
7 8 8 8 9 9 7 7 9 10 11 11 11 13 13 12 12 11 10 11 11 10 10 11 11 12 13 12 12 12 11 10 10 9 8 8 7 6 7 8 8 7 6 5 2 1 2 2 2 1 1 2 2 2 2 3 3 3 4 5 6 4 2 3 3 5 6 5 6 6 6 5 5 4 5 5 6 5 5 5 4 3 3 3 3
8 8 8 8 9 9 7 8 10 10 10 10 11 13 14 13 12 12 11 11 10 10 12 13 12 12 12 11 11 10 10 12 13 11 8 8 8 5 5 7 7 8 6 4 3 3 3 3 2 1 0 0 0 1 2 2 3 4 6 8 8 7 5 4 5 6 7 6 5 7 7 5 3 2 2 3 4 5 5 6 6 5 5 5 5
9 9 8 8 9 8 8 9 9 9 9 10 11 12 13 13 12 12 11 11 10 10 13 15 14 13 12 11 9 7 12 17 15 13 10 8 9 7 5 6 6 6 4 3 3 3 5 6 5 3 2 3 3 4 4 4 5 5 7 8 9 9 8 7 7 9 10 10 10 11 10 9 8 7 5 4 3 4 4 5 5 6 7 8 8
9 9 9 9 9 9 9 9 8 7 8 9 10 11 12 11 11 12 10 11 11 11 13 14 15 14 13 12 8 6 13 18 16 17 16 11 9 9 8 7 6 4 3 3 5 6 7 7 6 5 4 5 6 6 6 6 6 7 8 9 9 9 8 8 8 10 11 12 13 12 12 11 10 9 9 8 8 8 8 6 4 5 7 8 11
8 9 10 10 10 10 10 9 8 7 8 9 9 10 11 11 11 11 10 10 11 11 12 13 15 14 14 13 8 6 15 18 15 17 19 18 15 12 10 8 7 5 3 4 6 7 7 7 7 7 7 6 6 6 6 6 7 7 7 8 9 8 8 8 8 9 10 11 11 11 10 9 9 9 9 9 9 10 9 9 8 6 4 4 7
8 8 9 10 11 11 11 11 10 9 9 9 9 10 10 11 11 10 9 10 11 12 12 12 13 14 14 14 10 10 17 16 13 15 18 21 20 16 13 10 9 9 5 4 5 5 6 8 8 7 6 5 5 5 6 6 5 5 6 7 7 7 7 8 8 8 9 9 10 10 9 8 7 7 7 7 7 8 8 9 9 9 7 6 5
8 7 6 7 9 11 11 10 10 10 10 8 9 9 10 10 10 9 8 9 11 13 12 10 12 14 14 15 12 14 19 17 15 17 17 19 20 18 15 11 11 12 7 3 3 3 6 8 8 7 4 3 4 4 5 5 5 5 6 6 6 7 7 7 8 8 9 9 9 9 8 7 7 7 7 7 7 7 7 8 8 8 8 8 8
7 6 5 4 5 8 9 9 9 10 9 8 7 8 9 9 10 9 9 9 10 12 12 10 11 14 15 15 12 13 18 19 17 18 17 17 18 18 16 14 13 12 9 5 3 4 5 6 9 8 4 2 3 3 3 4 4 5 6 7 7 7 7 8 9 9 10 10 10 10 10 9 8 8 8 8 9 8 8 8 8 7 7 7 8
7 6 5 4 5 7 8 8 9 10 8 7 6 7 9 9 9 9 9 9 9 10 11 10 10 12 14 13 11 12 16 19 18 17 15 14 16 19 20 18 15 12 10 8 6 4 3 5 8 9 5 3 2 2 3 3 4 6 7 7 8 8 9 10 11 12 13 13 13 13 13 12 12 11 10 10 10 10 10 9 9 8 8 8 8
6 7 6 4 5 8 8 8 9 10 9 6 4 6 8 9 7 7 9 9 9 9 9 9 9 9 11 11 11 12 15 17 17 15 12 12 16 20 21 19 15 14 12 9 8 6 2 3 7 9 6 4 3 3 4 5 6 7 8 9 10 10 11 12 13 14 14 14 14 14 13 13 12 11 11 11 11 11 11 10 10 9 9 9 8
4 7 8 7 6 7 7 7 9 10 9 7 5 6 8 8 8 9 9 9 8 10 10 10 11 11 11 11 12 14 15 16 17 16 13 13 17 20 21 19 15 14 14 11 8 6 3 3 5 8 6 4 5 6 6 6 6 9 10 10 11 12 12 12 13 13 14 14 14 14 12 12 11 10 10 10 10 9 9 9 9 9 9 9 9
1 3 7 9 7 6 5 5 7 9 9 8 8 9 10 9 10 10 10 10 10 12 13 13 14 14 14 13 13 14 15 16 18 18 15 15 16 17 18 19 18 15 14 14 10 5 2 3 4 7 7 6 6 7 7 7 7 8 10 11 11 12 12 11 11 12 13 14 15 16 14 13 11 11 10 10 10 10 10 9 9 9 8 8 8
2 1 5 8 7 6 5 5 7 8 8 9 10 10 9 10 11 11 12 13 13 15 16 16 16 15 15 14 12 12 13 16 20 19 17 16 15 15 14 13 18 20 17 15 12 8 5 2 2 7 8 7 8 8 6 6 7 7 9 11 12 11 11 11 10 10 10 11 14 16 17 15 14 13 12 13 13 12 12 11 10 9 8 8 8
2 2 3 5 6 4 5 8 10 9 9 10 9 8 8 9 11 13 16 16 16 16 16 16 16 14 15 13 9 9 10 14 19 19 18 17 15 18 16 9 12 18 18 16 14 10 7 4 2 4 7 8 9 9 7 7 7 7 9 10 11 11 11 11 11 10 10 10 13 16 18 17 16 15 15 15 15 15 14 14 12 11 10 9 9
3 4 5 6 6 4 8 11 11 9 9 9 8 8 9 11 13 16 18 19 18 17 15 15 15 14 13 12 9 9 10 12 17 18 17 18 15 17 19 13 9 10 12 15 16 12 8 7 5 1 3 7 10 10 8 7 7 8 9 9 9 10 10 10 10 11 12 14 17 19 20 20 17 15 15 15 16 16 17 17 15 12 11 10 10
4 4 5 6 5 7 11 12 11 10 9 8 7 7 9 12 15 17 18 19 19 18 16 15 15 14 14 13 11 12 12 13 16 17 17 18 15 15 19 19 14 11 9 11 13 12 10 8 6 2 1 5 8 8 8 7 6 7 9 9 9 8 8 7 8 10 13 16 19 20 21 21 19 16 16 17 19 19 20 20 18 15 11 10 10
4 5 6 6 5 8 13 14 12 11 10 9 7 5 9 12 14 16 17 17 17 17 16 16 16 15 15 15 14 15 16 16 17 18 17 16 13 11 15 19 19 16 14 11 8 9 10 7 6 4 2 4 5 5 6 6 5 6 7 8 7 6 5 4 5 8 12 15 17 19 20 21 20 19 19 21 23 23 23 23 22 19 13 10 10
6 7 7 6 6 9 13 14 12 12 11 10 8 7 9 11 12 14 16 17 17 17 16 15 15 16 17 18 18 16 16 17 17 15 14 13 11 10 9 15 21 21 17 12 8 8 10 8 7 5 3 4 3 3 3 3 3 4 5 6 5 4 2 2 5 7 11 13 16 18 20 21 20 20 21 24 25 26 26 26 25 23 18 14 13
8 8 8 8 8 10 12 12 11 11 11 10 10 10 10 10 11 13 16 17 17 16 15 15 15 16 18 20 20 17 16 16 16 14 12 12 13 12 8 11 20 21 15 10 8 8 9 8 8 6 5 5 3 2 3 2 2 2 2 3 3 2 1 2 5 8 10 13 15 18 21 21 21 21 22 24 26 27 28 28 28 24 19 16 16
9 8 8 9 10 11 12 11 10 10 10 10 11 12 11 12 13 16 17 17 16 15 15 15 16 16 18 20 20 18 16 16 15 14 12 11 12 13 10 11 16 18 14 10 8 8 9 8 8 8 6 5 5 4 3 2 1 4 3 2 2 3 4 4 7 9 10 13 15 18 21 22 22 22 23 25 27 28 29 29 27 24 19 17 16
9 10 9 10 10 10 10 11 11 10 10 12 13 13 14 15 17 18 18 16 15 14 15 15 15 15 17 18 19 18 17 16 16 16 14 12 11 11 11 11 13 13 12 10 8 8 8 7 7 8 7 5 4 4 3 4 4 6 7 5 5 6 6 7 8 10 11 13 16 18 21 23 24 24 24 26 28 28 28 27 25 22 19 18 17
11 11 10 9 9 8 7 9 11 12 11 13 15 16 16 17 17 18 18 17 16 16 16 15 14 14 14 16 17 18 18 18 17 17 15 13 11 12 12 11 10 9 9 10 9 8 8 7 7 8 9 7 6 5 5 6 7 7 8 8 8 8 8 9 10 12 13 15 16 18 21 22 24 25 25 27 29 29 27 25 23 21 19 17 16
12 12 11 9 7 6 5 6 9 11 10 12 16 16 16 17 16 16 17 17 15 15 16 15 15 14 13 14 15 17 18 17 16 16 16 14 13 14 14 13 11 9 10 10 11 10 9 8 8 9 10 9 7 7 7 8 9 9 9 9 9 9 10 11 12 14 15 16 18 19 19 21 24 25 26 28 29 29 26 23 19 16 15 14 14
12 11 10 9 8 7 6 5 6 7 7 10 15 16 16 16 15 15 16 17 16 15 15 15 15 15 15 14 15 16 17 17 17 17 17 17 16 16 16 15 13 12 12 12 12 12 11 9 9 10 10 9 8 8 9 10 10 10 10 11 11 11 11 13 14 15 16 18 20 20 19 20 23 26 28 30 29 27 26 24 20 17 15 14 15
11 9 7 8 9 8 7 6 6 5 5 7 13 16 17 16 16 16 16 17 17 17 16 16 16 16 16 16 16 16 16 17 19 19 19 19 18 19 19 18 17 16 15 14 14 13 12 11 11 11 11 10 9 10 11 11 12 12 12 12 12 13 14 15 16 17 18 19 20 20 20 22 24 27 29 28 26 26 26 24 22 20 19 18 17
11 9 6 6 7 8 9 8 8 7 6 6 8 13 15 17 17 18 18 18 18 18 18 18 17 17 16 16 16 15 15 16 18 20 21 21 20 20 21 21 19 18 18 17 16 15 14 13 13 13 13 13 13 13 14 14 14 15 15 14 15 16 17 17 18 18 19 20 21 21 22 24 27 29 29 27 26 25 23 21 20 19 19 19 18
9 9 9 7 5 7 9 9 10 10 8 7 7 8 11 14 16 18 19 19 19 20 20 20 20 18 17 17 16 15 14 15 16 18 19 20 21 21 21 22 21 20 19 18 18 18 18 17 16 16 16 16 16 16 16 16 17 17 18 18 18 19 19 19 19 19 20 21 22 23 24 27 28 28 26 26 24 23 21 20 19 18 18 19 19
9 8 11 11 7 7 9 9 9 11 10 9 9 9 9 11 13 16 18 19 20 21 22 22 22 21 20 19 18 17 16 15 15 15 16 18 20 21 21 22 22 21 21 20 20 20 20 20 20 19 19 19 19 18 17 17 17 17 18 19 20 21 21 20 20 19 20 23 24 25 26 27 26 24 22 22 22 21 21 20 19 20 20 22 23
9 8 11 13 11 10 11 11 11 12 13 12 13 14 13 13 13 14 15 17 19 21 23 24 24 23 23 22 21 20 19 19 18 17 17 18 19 20 21 21 22 23 23 22 22 22 22 21 21 21 20 20 20 19 18 18 17 16 16 18 19 20 20 20 19 20 22 25 25 25 25 25 24 22 20 20 20 20 21 22 22 23 24 25 26
11 9 11 13 14 13 14 14 14 15 15 15 16 17 18 19 18 17 17 18 19 20 21 23 24 24 24 24 24 23 23 22 22 21 21 21 21 21 21 21 22 24 24 25 25 24 24 23 22 22 21 21 21 20 19 18 17 17 17 17 18 19 19 19 20 21 24 26 25 24 23 23 22 21 20 20 20 19 21 23 25 26 26 27 27
11 12 12 14 16 17 18 18 18 19 19 19 18 18 18 20 21 22 22 22 22 22 22 22 23 24 25 25 26 27 26 26 26 25 25 25 25 24 23 23 24 25 26 26 26 26 25 24 24 23 22 22 21 20 18 18 18 18 18 18 19 20 20 20 21 22 24 25 24 23 22 21 22 21 20 20 19 19 22 24 26 27 28 28 27
10 11 12 13 14 16 18 20 22 23 23 22 22 22 21 21 21 23 25 26 26 26 26 26 26 26 27 27 28 28 28 29 30 29 29 28 27 27 27 27 27 27 28 28 27 25 25 24 24 23 22 22 21 21 20 19 19 19 20 20 20 21 20 20 21 21 21 23 23 22 21 21 22 21 19 19 19 20 23 26 27 27 27 25 24
9 10 10 10 10 11 12 14 17 20 22 23 24 24 25 24 23 23 26 28 30 30 30 30 30 30 30 31 32 31 30 31 31 30 30 29 27 28 29 29 27 28 28 28 26 23 23 24 23 23 22 23 22 22 21 20 20 21 21 21 20 20 19 20 20 19 19 22 22 22 21 20 21 21 21 21 22 23 25 26 26 26 25 25 25
10 10 10 10 10 10 10 10 12 14 16 18 21 23 25 26 26 27 28 29 31 32 33 33 33 33 33 34 36 35 32 30 30 31 32 30 28 29 30 28 26 26 26 25 24 22 21 22 23 23 22 21 20 20 20 20 20 20 20 20 19 19 19 19 19 18 19 21 22 21 20 21 22 24 24 24 24 25 26 26 25 26 27 28 29
11 10 11 11 11 11 12 12 13 14 15 16 17 19 22 24 27 29 30 30 30 30 32 33 34 35 35 36 38 36 33 32 32 32 33 32 31 31 29 26 25 26 25 24 24 23 22 21 22 21 19 17 17 17 18 18 18 19 19 18 18 19 19 19 18 18 19 21 21 21 21 22 23 25 26 26 26 25 25 25 27 29 30 30 30
13 13 14 14 14 14 14 14 15 16 17 17 16 17 19 21 23 26 29 30 30 30 31 32 33 35 36 37 38 38 38 36 34 33 33 32 32 32 30 28 28 28 26 25 24 23 22 20 19 17 16 16 16 15 14 15 16 16 17 17 17 18 18 18 18 18 19 21 22 22 22 23 24 25 26 27 27 26 26 27 29 30 30 28 26
Wind_Direction
149 140 155 161 154 147 146 152 158 158 154 152 154 157 155 153 154 159 163 164 165 163 165 169 172 176 180 187 205 217 218 221 231 246 277 309 7 37 45 40 33 33 37 59 64 70 124 133 136 152 152 152 156 151 156 158 159 157 145 142 135 130 128 128 136 135 132 117 108 104 98 96 93 90 86 81 78 74 70 65 63 60 55 55 52
163 170 175 169 166 156 145 153 164 166 159 153 156 161 162 162 163 169 172 171 174 177 176 176 183 192 189 194 214 221 221 218 223 238 242 190 100 62 66 62 60 62 55 62 60 56 106 115 115 143 146 145 147 145 149 148 150 142 130 125 114 112 109 108 120 127 135 120 109 106 100 97 92 89 84 78 73 68 64 61 58 58 55 54 52
173 177 177 175 177 165 149 156 164 168 164 157 158 163 168 171 174 178 181 178 180 186 185 180 189 196 187 196 216 217 219 217 221 220 187 145 114 81 87 87 82 79 72 74 70 68 99 101 92 101 111 112 111 108 100 93 93 90 88 90 86 83 81 78 79 84 92 95 96 86 86 91 86 88 85 78 72 67 62 57 53 54 53 51 49
164 168 174 176 176 163 158 168 172 174 173 170 166 165 173 181 183 187 190 186 186 192 197 187 183 185 180 194 215 215 218 216 215 202 181 176 149 106 107 106 97 90 90 94 87 85 102 102 93 89 94 96 92 93 93 90 89 88 87 87 88 85 83 81 78 79 81 87 93 89 78 73 78 79 80 76 70 68 62 55 50 49 49 47 46
154 168 180 178 177 171 165 169 175 181 183 179 175 173 178 189 194 194 193 192 191 195 201 186 173 174 178 195 220 217 210 203 197 189 196 223 176 125 116 107 103 104 106 109 105 100 102 106 99 87 90 95 96 97 99 98 93 90 89 86 84 81 79 75 70 66 66 73 83 93 103 94 85 79 76 77 69 67 64 59 52 48 46 44 43
160 173 183 184 192 185 176 181 181 182 187 184 182 187 191 196 198 199 195 192 193 193 190 178 168 171 173 190 214 207 197 195 190 197 228 200 138 122 113 103 104 115 120 119 117 112 105 111 117 109 104 102 104 106 102 98 95 89 84 77 71 67 65 64 65 63 62 65 70 75 83 90 88 79 67 63 62 57 51 47 43 41 41 41 40
180 180 179 188 202 196 186 199 195 184 189 192 188 187 194 196 198 207 206 193 190 181 174 171 164 161 161 183 197 191 191 185 179 215 203 121 120 123 123 120 117 118 121 115 105 105 108 117 127 131 128 121 119 116 99 88 84 74 59 37 36 50 56 54 57 60 60 62 64 67 69 75 79 75 70 62 59 54 44 35 28 27 28 33 37
197 190 185 195 209 209 202 203 204 192 189 194 191 181 184 196 198 204 203 191 182 172 164 156 146 149 155 171 171 170 179 159 134 177 135 117 116 123 131 133 134 131 126 115 100 99 109 118 122 124 124 122 129 142 140 167 182 28 312 295 319 357 32 38 45 52 56 58 59 62 65 69 73 72 69 60 55 51 48 40 27 23 23 26 32
210 208 201 202 212 216 211 201 202 200 190 190 193 183 181 190 185 183 188 188 178 168 160 148 148 160 159 162 157 158 166 138 121 129 115 118 120 122 141 138 138 149 142 131 120 116 121 129 134 132 123 110 108 160 261 279 286 305 289 278 292 307 333 352 5 15 30 47 57 67 71 70 71 70 67 58 49 40 44 52 39 22 23 29 29
216 215 206 207 216 216 212 204 198 198 193 192 195 190 183 176 172 168 170 182 179 169 162 155 158 163 159 164 162 156 154 126 122 117 109 118 118 124 161 161 157 165 162 155 138 139 150 160 156 148 146 130 291 279 290 307 312 299 286 279 283 285 290 304 304 303 313 312 302 308 88 85 80 79 73 63 53 44 42 56 60 37 24 42 37
207 204 197 205 213 209 207 204 196 194 197 199 197 194 186 174 178 182 168 170 179 172 168 164 161 160 160 162 154 149 152 134 123 109 104 110 107 108 137 160 171 154 194 204 169 179 192 199 199 201 230 262 274 279 290 298 297 293 291 283 277 279 281 286 285 281 278 279 282 288 294 305 308 65 94 81 66 60 57 53 56 51 27 25 35
193 189 185 193 200 197 197 200 201 201 204 206 199 192 189 180 183 192 178 170 173 172 171 168 161 157 158 157 150 148 149 138 122 104 99 97 95 93 92 100 74 55 56 302 197 209 217 226 235 239 246 262 274 283 295 297 292 285 284 285 281 280 285 285 282 280 276 272 269 267 269 280 296 312 329 48 64 59 61 56 43 38 34 27 33
185 182 179 182 191 187 184 192 205 208 202 199 195 188 187 183 182 188 183 176 173 169 170 170 165 160 159 156 151 148 144 134 117 103 94 87 87 90 83 71 65 75 84 91 129 174 220 232 238 244 245 257 276 286 294 296 291 286 284 288 292 290 287 281 277 280 281 276 270 263 258 258 269 292 308 327 354 18 38 36 27 23 24 19 20
166 170 172 174 182 183 181 188 199 200 194 189 188 188 185 182 187 188 180 180 179 171 169 172 174 171 166 159 150 144 141 136 125 109 98 92 91 87 81 81 90 94 99 106 114 121 149 224 236 246 252 264 281 284 288 301 308 310 310 310 317 321 310 298 291 288 284 280 280 281 278 275 276 276 282 303 312 305 320 343 357 4 8 8 6
152 162 169 171 175 181 185 193 193 188 189 189 188 189 186 182 192 196 186 184 184 179 177 178 181 180 171 160 153 147 140 140 141 127 110 107 107 95 83 84 92 101 115 117 114 123 146 194 231 255 272 275 276 275 285 308 322 325 332 341 349 347 334 326 313 299 296 293 292 298 298 288 285 283 282 287 294 297 302 312 331 340 344 352 353
142 153 159 163 170 177 187 198 190 182 187 193 193 192 189 184 190 200 200 195 191 191 191 187 188 187 175 160 156 155 147 148 150 143 135 131 131 113 90 85 83 87 101 114 113 96 121 169 211 263 279 261 261 277 298 309 323 343 3 10 11 8 4 4 353 342 340 321 305 325 336 308 291 288 289 285 283 286 286 291 301 299 302 317 323
132 141 141 145 157 169 180 187 185 182 184 189 193 194 192 188 191 199 205 207 204 204 200 192 191 197 193 174 165 167 161 155 144 140 151 151 151 145 103 93 87 84 91 99 97 86 80 85 85 73 35 6 343 337 347 352 7 17 18 21 27 33 40 32 20 21 24 23 16 21 28 28 26 24 345 308 289 283 281 287 291 284 284 293 299
125 134 135 135 147 159 167 172 176 176 177 183 188 195 195 189 188 195 202 209 213 216 208 198 191 197 209 202 195 195 174 164 148 138 146 150 155 163 135 112 99 86 90 91 87 79 62 59 69 67 41 36 41 37 31 32 33 28 23 27 35 41 45 41 34 45 55 58 57 55 59 65 66 62 56 40 4 347 341 321 299 289 283 280 281
127 135 137 136 141 152 160 163 170 169 172 184 187 190 193 187 183 191 202 209 212 218 213 205 199 199 208 210 215 212 180 174 164 151 149 148 158 166 148 125 107 91 95 100 87 76 63 65 78 73 56 49 45 41 40 39 36 34 34 35 38 41 45 44 41 51 59 62 64 65 65 64 64 61 56 52 45 38 31 21 354 312 289 277 273
135 143 147 147 148 151 153 152 157 162 165 178 183 183 187 187 189 196 207 211 211 216 215 212 211 210 210 206 204 186 178 179 176 166 156 149 154 158 143 126 118 119 127 102 83 71 67 70 67 57 53 53 51 48 42 40 37 34 37 38 39 40 42 44 45 48 51 54 57 60 61 58 54 49 48 49 48 46 42 38 36 24 353 321 293
137 143 152 157 160 162 159 150 148 156 160 169 177 182 186 189 196 202 206 205 205 209 211 217 220 219 213 205 190 170 175 176 174 174 161 150 152 152 144 139 135 137 141 104 82 60 52 50 36 24 28 40 45 40 30 25 22 18 25 31 33 37 40 41 42 43 45 46 48 51 52 49 42 36 35 35 35 32 32 33 37 45 42 34 21
138 136 140 152 166 171 170 160 151 153 155 164 179 183 182 181 186 190 189 192 199 201 202 211 219 217 211 203 191 173 174 174 173 177 168 155 155 153 150 154 148 146 151 118 88 63 48 39 25 14 8 13 16 14 10 6 8 16 28 32 34 37 41 43 43 42 42 43 44 45 45 42 33 25 20 17 19 18 18 20 21 32 38 35 38
145 142 141 148 173 179 174 166 163 167 164 164 183 192 187 180 179 181 181 185 193 196 196 202 211 211 207 205 202 188 183 182 180 181 176 165 159 153 149 152 149 149 157 150 120 79 56 34 23 22 18 4 351 356 7 8 20 39 48 48 50 51 52 54 55 54 53 52 53 52 51 49 43 34 27 21 20 18 15 12 7 7 9 11 15
158 162 162 166 186 187 182 171 168 182 182 170 185 205 201 193 186 188 191 188 185 187 187 189 202 208 205 203 203 199 193 191 187 183 187 189 173 154 146 146 146 147 154 154 143 114 61 28 23 25 27 22 6 20 37 41 52 62 65 66 65 66 68 70 70 70 68 65 63 61 60 58 56 51 46 40 35 32 29 23 17 9 1 356 353
182 192 194 195 189 182 181 176 171 179 186 188 206 212 202 198 193 193 196 189 178 175 176 179 190 195 190 185 187 190 190 192 191 185 188 196 178 156 146 148 152 153 157 158 154 154 136 43 30 31 42 55 61 75 73 66 75 82 82 79 78 79 81 83 82 79 76 71 65 63 61 59 58 56 53 50 44 41 39 35 31 25 18 10 2
192 201 198 196 190 178 175 180 183 187 195 208 214 196 188 189 188 190 193 189 175 165 166 171 172 169 167 168 172 180 183 188 192 187 180 176 169 160 151 151 160 164 168 174 177 177 160 102 52 44 61 86 81 83 88 82 89 96 91 86 86 86 86 86 85 80 75 70 63 57 54 51 49 48 45 42 39 35 32 30 27 24 20 17 12
135 193 186 184 188 187 183 184 185 192 204 209 195 181 180 180 181 186 187 182 171 160 160 164 162 158 157 157 161 171 180 188 191 189 184 170 162 161 154 154 167 176 180 185 191 200 172 119 91 74 80 101 98 90 93 94 95 98 94 90 86 85 85 82 81 80 74 67 59 51 47 43 38 37 36 31 29 26 21 18 15 11 7 2 360
350 298 182 182 191 194 191 181 172 175 182 182 176 173 174 175 175 175 170 166 163 159 160 161 158 153 151 152 157 168 181 191 192 193 191 179 169 168 163 160 168 174 183 189 190 194 186 153 104 99 95 98 97 91 93 98 96 94 97 95 85 80 79 77 76 75 68 58 49 41 38 39 38 38 37 33 28 25 22 18 13 7 359 352 346
287 279 211 195 200 196 178 172 170 169 164 160 159 160 161 163 165 164 161 160 161 162 163 162 160 154 153 158 165 169 177 185 187 191 190 184 179 175 175 178 171 170 178 190 198 200 188 183 166 113 104 102 95 88 94 103 96 92 100 99 85 73 70 70 70 66 57 47 34 25 24 29 37 42 40 34 28 26 23 21 17 10 2 354 347
248 251 228 212 214 199 172 169 168 168 162 150 146 151 156 157 160 162 162 164 166 166 166 165 164 163 165 171 167 156 162 172 178 186 190 187 184 182 183 190 191 187 185 187 197 202 191 189 195 155 111 117 101 87 92 103 102 94 94 94 81 67 60 58 58 54 48 38 28 21 17 16 24 35 34 28 25 23 21 19 17 13 7 1 354
227 212 194 196 199 175 167 168 166 165 165 159 154 157 161 161 163 165 167 171 173 170 170 171 172 173 176 178 168 150 149 157 162 168 180 187 189 193 196 197 202 218 212 192 195 198 195 200 204 212 170 135 113 95 90 92 100 97 89 88 80 66 58 50 44 38 33 29 23 20 15 9 11 17 16 14 13 12 12 12 11 8 5 2 358
178 161 158 168 169 162 168 174 173 172 175 176 177 179 173 167 167 170 173 178 180 177 176 177 178 181 181 178 170 157 150 149 150 153 164 175 181 185 196 201 205 212 211 207 209 199 191 204 222 228 195 137 117 110 99 80 85 99 94 91 84 73 67 43 24 20 20 19 17 15 11 5 4 5 4 3 1 360 0 2 1 358 354 352 353
149 144 144 151 153 156 168 177 181 186 190 191 194 194 181 170 168 173 176 180 185 183 179 180 181 184 183 175 169 164 162 161 161 163 169 179 187 185 188 201 205 207 211 216 219 203 193 201 220 219 169 134 118 117 123 84 59 86 102 101 93 91 102 2 1 4 6 7 7 7 5 1 359 357 357 356 354 352 351 352 352 350 345 341 343
144 138 134 140 145 151 164 174 181 186 193 197 194 192 187 176 169 171 175 178 182 180 175 172 172 176 179 177 172 169 172 179 182 188 194 198 203 204 197 199 201 203 208 212 211 205 200 201 208 204 170 148 141 121 135 132 33 38 111 123 127 156 237 321 343 349 352 355 356 357 357 356 354 352 351 349 348 346 345 345 345 344 341 337 336
139 129 125 128 132 143 161 173 177 181 188 189 184 182 183 176 167 166 170 175 175 171 169 165 161 165 173 179 180 179 182 191 197 199 199 199 204 205 197 192 195 197 202 210 217 210 198 193 202 206 195 165 151 140 142 162 260 282 268 239 240 265 293 315 324 333 337 340 344 347 347 347 347 346 344 342 342 341 340 339 339 338 335 331 331
136 126 126 124 120 125 148 167 174 176 176 172 168 166 168 167 163 161 164 169 171 168 166 164 158 158 166 176 182 185 190 198 200 198 195 196 200 198 190 188 195 201 207 212 220 220 208 198 192 200 206 196 173 171 179 195 228 257 264 272 282 286 295 302 307 315 321 327 333 336 337 339 339 338 337 336 336 335 335 335 334 332 328 325 324
140 135 139 139 126 116 129 155 166 170 168 164 161 159 161 163 163 163 165 169 172 170 169 169 165 160 162 171 177 181 187 194 197 201 202 201 199 195 194 195 200 214 217 207 205 216 220 208 187 187 202 208 206 210 217 217 226 243 262 277 285 285 286 289 295 303 310 317 322 325 328 330 330 330 331 330 330 330 332 333 331 327 322 320 320
146 143 148 155 152 139 137 148 159 167 168 165 166 167 167 168 170 171 173 176 178 177 176 176 177 175 174 177 181 184 190 197 203 207 207 204 201 199 199 201 206 220 221 206 201 209 217 217 207 201 208 215 221 228 226 223 230 245 265 280 281 278 279 282 287 295 301 307 312 315 319 321 322 324 325 325 326 327 329 330 328 323 318 316 316
154 152 154 164 171 165 167 172 167 172 173 170 177 182 180 178 180 182 184 188 191 190 188 187 189 191 192 193 197 198 201 207 212 214 211 208 208 206 206 209 210 211 213 210 208 208 211 218 219 217 221 224 227 233 232 228 236 249 262 272 274 269 269 274 280 287 293 298 303 307 310 313 315 317 319 322 323 322 322 321 318 314 308 306 307
162 163 158 170 181 179 187 198 192 195 200 185 186 192 194 191 191 194 198 201 204 204 203 204 206 207 207 208 211 213 214 215 216 217 218 218 219 217 215 218 216 210 212 217 216 212 212 216 217 218 224 227 228 235 239 238 244 252 255 259 263 262 265 271 276 282 288 292 297 301 304 306 309 313 317 320 320 319 318 317 314 310 306 305 306
172 178 178 181 189 191 198 209 212 221 234 227 207 204 207 206 204 206 208 210 214 217 218 221 223 224 225 225 225 224 225 225 224 223 225 227 229 227 223 223 223 219 218 221 221 219 219 221 218 216 220 225 230 237 244 248 252 256 254 254 256 259 265 271 276 281 285 289 293 296 301 304 307 311 315 317 318 319 320 318 313 309 308 309 309
185 193 200 202 202 203 206 213 221 231 239 241 235 226 223 224 222 220 220 220 223 226 229 232 235 237 241 242 241 238 237 236 233 231 230 230 231 230 226 226 228 228 226 226 225 226 228 228 224 221 225 232 235 238 244 251 254 255 254 255 256 258 262 268 275 281 286 289 292 295 299 304 307 310 313 316 319 320 318 315 311 307 307 307 306
201 199 201 200 200 205 212 222 231 238 243 243 245 248 244 240 238 235 233 231 229 231 234 237 240 244 247 248 249 247 246 245 244 241 237 232 230 229 229 229 230 232 233 233 232 231 231 231 230 232 238 242 244 246 249 253 256 255 255 256 258 259 262 267 273 280 286 290 294 298 302 307 311 316 319 319 320 318 315 311 307 304 304 304 303
210 204 201 203 205 206 213 225 233 240 247 250 250 251 251 252 252 252 250 245 240 237 237 237 240 243 246 248 249 248 249 250 250 249 246 240 234 231 231 232 234 235 237 240 241 240 238 236 237 240 244 245 248 254 258 260 260 259 257 256 257 260 264 270 276 284 291 296 301 306 309 311 314 319 320 317 316 313 307 303 302 303 304 304 303
215 213 206 207 211 211 214 222 228 233 239 245 249 251 252 253 253 253 255 256 254 250 246 244 243 244 247 249 249 250 251 250 250 251 252 249 244 240 238 238 239 239 239 241 244 245 244 244 246 248 250 251 254 258 261 263 263 262 260 258 259 261 266 274 283 291 295 300 305 310 313 313 313 314 314 312 311 307 301 299 301 303 303 303 302
215 219 218 219 221 221 223 225 228 233 235 238 243 247 250 252 253 252 253 254 255 257 257 255 252 250 251 251 250 251 251 249 249 251 252 250 248 247 246 247 247 247 246 245 245 246 246 248 251 253 254 255 256 256 256 257 258 260 261 261 263 266 272 280 288 294 297 299 303 309 312 311 310 311 312 310 309 306 301 301 303 305 305 305 304
200 210 219 226 229 232 235 234 233 236 237 239 242 245 247 250 251 253 253 253 253 254 255 256 256 255 255 255 254 253 251 250 248 246 247 249 248 249 250 251 252 252 251 250 249 248 248 249 251 251 252 252 251 251 252 253 257 260 263 265 267 271 278 285 290 295 298 300 303 308 311 310 309 311 311 309 309 307 304 305 307 309 311 311 310
196 203 208 216 221 227 236 239 240 241 242 244 246 247 249 251 252 253 251 250 250 250 250 253 256 258 259 260 260 256 252 253 251 249 250 252 253 254 253 250 251 252 252 251 250 249 248 247 246 245 247 248 247 249 253 257 260 263 265 268 272 276 282 287 290 295 298 300 304 309 311 312 311 311 311 311 310 309 309 310 312 314 314 313 312
197 205 212 219 223 225 230 236 240 244 246 248 249 249 249 251 254 255 254 251 248 246 246 249 252 256 260 263 262 256 250 253 258 260 257 253 254 257 254 248 248 251 252 250 250 250 248 242 239 239 240 243 245 248 252 256 258 262 265 270 275 280 284 287 290 295 300 302 306 309 312 313 312 311 311 311 310 311 312 313 315 316 315 313 312
212 217 224 228 231 237 242 243 244 248 249 251 252 251 248 248 250 254 257 260 257 251 249 249 252 256 260 263 263 260 257 259 263 262 257 250 249 252 252 250 249 249 253 256 254 251 246 237 232 233 233 236 241 244 248 253 258 263 268 272 276 281 285 288 293 300 304 304 304 306 309 311 311 312 312 311 311 311 312 313 315 316 316 316 317
246 247 248 248 246 246 249 250 252 253 253 252 253 256 255 252 252 253 256 260 262 261 258 257 257 258 260 262 263 263 263 264 263 260 255 249 246 244 244 249 253 253 257 263 258 248 241 232 226 226 227 231 238 243 249 256 260 266 271 277 281 284 288 293 299 303 304 302 302 305 309 310 310 311 312 312 313 313 312 313 315 317 319 319 321